• In Romania
  • List of Countries
  • For 7 days
  • Water Temperature
  • Satellite Maps
  • Weather Map
  • Weather Widgets
  • user-avatar
    Login

    Hourly Weather Mahilyow

    Today, 18 October, Wednesday

    Time Temperature Precipitation Wind Pressure Humidity
    00:00 +11°C° 0 mm 4 mps 749 mmHg 94%
    01:00 +10°C° 0 mm 5 mps 748 mmHg 95%
    02:00 +10°C° 0 mm 5 mps 748 mmHg 95%
    03:00 +10°C° 0 mm 5 mps 748 mmHg 95%
    04:00 +10°C° 0 mm 5 mps 747 mmHg 95%
    05:00 +10°C° 0 mm 5 mps 747 mmHg 95%
    06:00 +10°C° 0 mm 5 mps 746 mmHg 94%
    07:00 +10°C° 0 mm 5 mps 746 mmHg 93%
    08:00 +11°C° 0 mm 4 mps 746 mmHg 92%
    09:00 +13°C° 0 mm 5 mps 746 mmHg 86%
    10:00 +14°C° 0 mm 5 mps 746 mmHg 80%
    11:00 +16°C° 0 mm 5 mps 746 mmHg 73%
    12:00 +16°C° 0 mm 5 mps 746 mmHg 70%
    13:00 +17°C° 0 mm 5 mps 746 mmHg 67%
    14:00 +19°C° 0 mm 6 mps 745 mmHg 64%
    15:00 +17°C° 0 mm 5 mps 745 mmHg 69%
    16:00 +17°C° 0 mm 4 mps 745 mmHg 74%
    17:00 +14°C° 0 mm 3 mps 745 mmHg 79%
    18:00 +14°C° 0 mm 3 mps 745 mmHg 82%
    19:00 +13°C° 0 mm 3 mps 745 mmHg 86%
    20:00 +12°C° 0 mm 3 mps 745 mmHg 90%
    21:00 +12°C° 0 mm 2 mps 746 mmHg 90%
    22:00 +10°C° 0 mm 2 mps 746 mmHg 91%
    23:00 +10°C° 0 mm 2 mps 746 mmHg 91%

    Tomorrow, 19 October, Thursday

    Time Temperature Precipitation Wind Pressure Humidity
    00:00 +9°C° 0 mm 2 mps 746 mmHg 92%
    01:00 +9°C° 0 mm 2 mps 746 mmHg 92%
    02:00 +9°C° 0 mm 2 mps 747 mmHg 93%
    03:00 +8°C° 0 mm 2 mps 747 mmHg 94%
    04:00 +8°C° 0 mm 2 mps 747 mmHg 94%
    05:00 +8°C° 0 mm 2 mps 747 mmHg 95%
    06:00 +9°C° 0 mm 1 mps 747 mmHg 94%
    07:00 +9°C° 0 mm 1 mps 747 mmHg 93%
    08:00 +10°C° 0 mm 1 mps 748 mmHg 92%
    09:00 +11°C° 0 mm 1 mps 748 mmHg 84%
    10:00 +12°C° 0 mm 1 mps 748 mmHg 76%
    11:00 +13°C° 0 mm 1 mps 748 mmHg 68%
    12:00 +13°C° 0 mm 1 mps 748 mmHg 65%
    13:00 +14°C° 0 mm 2 mps 748 mmHg 61%
    14:00 +14°C° 0 mm 2 mps 748 mmHg 58%
    15:00 +13°C° 0 mm 2 mps 748 mmHg 60%
    16:00 +12°C° 0 mm 2 mps 748 mmHg 62%
    17:00 +10°C° 0 mm 2 mps 748 mmHg 65%
    18:00 +9°C° 0 mm 2 mps 749 mmHg 66%
    19:00 +8°C° 0 mm 2 mps 749 mmHg 68%
    20:00 +7°C° 0 mm 2 mps 749 mmHg 69%
    21:00 +7°C° 0 mm 2 mps 750 mmHg 72%
    22:00 +6°C° 0 mm 2 mps 750 mmHg 75%
    23:00 +6°C° 0 mm 2 mps 750 mmHg 78%

    Day after tomorrow, 20 October, Friday

    Time Temperature Precipitation Wind Pressure Humidity
    00:00 +5°C° 0 mm 2 mps 750 mmHg 81%
    01:00 +5°C° 0 mm 2 mps 750 mmHg 84%
    02:00 +4°C° 0 mm 2 mps 751 mmHg 87%
    03:00 +4°C° 0 mm 2 mps 751 mmHg 89%
    04:00 +4°C° 0 mm 2 mps 751 mmHg 90%
    05:00 +3°C° 0 mm 2 mps 751 mmHg 92%
    06:00 +4°C° 0 mm 2 mps 751 mmHg 90%
    07:00 +4°C° 0 mm 2 mps 752 mmHg 89%
    08:00 +4°C° 0 mm 2 mps 752 mmHg 87%
    09:00 +6°C° 0 mm 2 mps 752 mmHg 80%
    10:00 +7°C° 0 mm 2 mps 753 mmHg 73%
    11:00 +9°C° 0 mm 2 mps 753 mmHg 66%
    12:00 +9°C° 0 mm 2 mps 753 mmHg 64%
    13:00 +10°C° 0 mm 2 mps 753 mmHg 61%
    14:00 +10°C° 0 mm 2 mps 753 mmHg 58%
    15:00 +9°C° 0 mm 2 mps 753 mmHg 64%
    16:00 +8°C° 0 mm 2 mps 753 mmHg 70%
    17:00 +6°C° 0 mm 2 mps 753 mmHg 75%
    18:00 +6°C° 0 mm 2 mps 753 mmHg 79%
    19:00 +5°C° 0 mm 2 mps 754 mmHg 82%
    20:00 +4°C° 0 mm 2 mps 754 mmHg 85%
    21:00 +4°C° 0 mm 2 mps 754 mmHg 86%
    22:00 +3°C° 0 mm 2 mps 754 mmHg 87%
    23:00 +4°C° 0 mm 1 mps 755 mmHg 87%

    21 October, Saturday

    Time Temperature Precipitation Wind Pressure Humidity
    00:00 +4°C° 0 mm 1 mps 755 mmHg 87%
    01:00 +3°C° 0 mm 1 mps 755 mmHg 87%
    02:00 +3°C° 0 mm 1 mps 755 mmHg 88%
    03:00 +3°C° 0 mm 1 mps 755 mmHg 88%
    04:00 +2°C° 0 mm 1 mps 755 mmHg 88%
    05:00 +2°C° 0 mm 1 mps 755 mmHg 88%
    06:00 +2°C° 0 mm 1 mps 755 mmHg 85%
    07:00 +3°C° 0 mm 1 mps 755 mmHg 83%
    08:00 +3°C° 0 mm 1 mps 756 mmHg 81%
    09:00 +5°C° 0 mm 1 mps 756 mmHg 74%
    10:00 +5°C° 0 mm 2 mps 756 mmHg 67%
    11:00 +7°C° 0 mm 2 mps 756 mmHg 60%
    12:00 +7°C° 0 mm 2 mps 756 mmHg 58%
    13:00 +8°C° 0 mm 2 mps 755 mmHg 56%
    14:00 +8°C° 0 mm 2 mps 755 mmHg 54%
    15:00 +7°C° 0 mm 2 mps 755 mmHg 60%
    16:00 +6°C° 0 mm 2 mps 755 mmHg 66%
    17:00 +4°C° 0 mm 2 mps 755 mmHg 71%
    18:00 +4°C° 0 mm 2 mps 755 mmHg 74%
    19:00 +3°C° 0 mm 2 mps 756 mmHg 77%
    20:00 +2°C° 0 mm 2 mps 756 mmHg 80%
    21:00 +2°C° 0 mm 2 mps 756 mmHg 82%
    22:00 +1°C° 0 mm 2 mps 756 mmHg 84%
    23:00 +1°C° 0 mm 2 mps 756 mmHg 86%

    22 October, Sunday

    Time Temperature Precipitation Wind Pressure Humidity
    00:00 +1°C° 0 mm 2 mps 756 mmHg 87%
    01:00 -1°C° 0 mm 2 mps 756 mmHg 89%
    02:00 -1°C° 0 mm 2 mps 756 mmHg 90%
    03:00 -1°C° 0 mm 2 mps 756 mmHg 91%
    04:00 -2°C° 0 mm 2 mps 756 mmHg 91%
    05:00 -2°C° 0 mm 2 mps 756 mmHg 92%
    06:00 -1°C° 0 mm 2 mps 756 mmHg 90%
    07:00 -1°C° 0 mm 2 mps 756 mmHg 87%
    08:00 -1°C° 0 mm 2 mps 755 mmHg 85%
    09:00 +2°C° 0 mm 2 mps 755 mmHg 77%
    10:00 +4°C° 0 mm 2 mps 755 mmHg 69%
    11:00 +4°C° 0 mm 3 mps 755 mmHg 61%
    12:00 +5°C° 0 mm 3 mps 754 mmHg 58%
    13:00 +7°C° 0 mm 3 mps 754 mmHg 56%
    14:00 +7°C° 0 mm 3 mps 753 mmHg 54%
    15:00 +5°C° 0 mm 3 mps 753 mmHg 59%
    16:00 +5°C° 0 mm 2 mps 753 mmHg 65%
    17:00 +3°C° 0 mm 2 mps 752 mmHg 71%
    18:00 +3°C° 0 mm 2 mps 752 mmHg 73%
    19:00 +2°C° 0 mm 3 mps 752 mmHg 75%
    20:00 +1°C° 0 mm 3 mps 752 mmHg 77%
    21:00 +1°C° 0 mm 3 mps 752 mmHg 77%
    22:00 +1°C° 0 mm 3 mps 751 mmHg 78%
    23:00 +1°C° 0 mm 3 mps 751 mmHg 78%

    23 October, Monday

    Time Temperature Precipitation Wind Pressure Humidity
    00:00 +1°C° 0 mm 3 mps 751 mmHg 77%
    01:00 +1°C° 0 mm 3 mps 751 mmHg 76%
    02:00 +1°C° 0 mm 3 mps 750 mmHg 76%
    03:00 +2°C° 0 mm 3 mps 750 mmHg 74%
    04:00 +2°C° 0 mm 3 mps 750 mmHg 72%
    05:00 +2°C° 0 mm 3 mps 749 mmHg 70%
    06:00 +2°C° 0 mm 3 mps 749 mmHg 69%
    07:00 +3°C° 0 mm 3 mps 749 mmHg 67%
    08:00 +3°C° 0 mm 3 mps 749 mmHg 66%
    09:00 +4°C° 0 mm 4 mps 748 mmHg 65%
    10:00 +5°C° 0 mm 4 mps 748 mmHg 65%
    11:00 +6°C° 0 mm 4 mps 748 mmHg 64%
    12:00 +6°C° 0.3 mm 4 mps 747 mmHg 69%
    13:00 +6°C° 0.3 mm 4 mps 747 mmHg 73%
    14:00 +6°C° 0.3 mm 4 mps 746 mmHg 78%
    15:00 +6°C° 0.9 mm 4 mps 746 mmHg 83%
    16:00 +6°C° 0.9 mm 4 mps 746 mmHg 87%
    17:00 +5°C° 0.9 mm 3 mps 745 mmHg 92%
    18:00 +5°C° 0.7 mm 4 mps 745 mmHg 93%
    19:00 +6°C° 0.7 mm 4 mps 745 mmHg 93%
    20:00 +6°C° 0.7 mm 4 mps 745 mmHg 94%
    21:00 +6°C° 0.2 mm 4 mps 745 mmHg 94%
    22:00 +6°C° 0.2 mm 4 mps 745 mmHg 94%
    23:00 +6°C° 0.2 mm 4 mps 745 mmHg 94%
    Show more